{"data":{"norad_id":50200,"epoch":"2026-09-20T00:48:42.643296Z","epoch_age_seconds":85618,"freshness":"FRESH","line1":"1 50200U 21125AW  26263.03382689  .00000755  00000+0  34277-4 0  9999","line2":"2 50200  53.1603  76.2167 0000752  85.7523 274.3565 15.33549420266226","mean_motion":15.3354942,"eccentricity":7.52e-5,"inclination_deg":53.1603,"raan_deg":76.2167,"arg_perigee_deg":85.7523,"mean_anomaly_deg":274.3565,"bstar":3.4277e-5,"rev_number":26622,"period_min":93.899810545395,"perigee_km":464.71789026534,"apogee_km":465.74713303989,"semimajor_km":6843.3695116526,"source":"CELESTRAK","updated_at":"2026-09-20T09:00:39.420199Z"}}